Weather History for Harlan, KY

Change the Weather History Date:

Tuesday, May 13, 2014

  Actual Average (KLOZ) Record (KLOZ)
Temperature  
Mean Temperature 73 °F 64 °F  
Max Temperature 86 °F 76 °F 89 °F (1956)
Min Temperature 60 °F 52 °F 34 °F (2013)
Degree Days  
Heating Degree Days 0 3  
Month to date heating degree days 55  
Since 1 July heating degree days 4156  
Cooling Degree Days 8 2  
Month to date cooling degree days 21  
Year to date cooling degree days 47  
Growing Degree Days 23 (Base 50)    
Moisture  
Dew Point 62 °F    
Average Humidity 80    
Maximum Humidity 100    
Minimum Humidity 37    
Precipitation  
Precipitation 0.00 in 0.18 in 1.68 in (1983)
Month to date precipitation 2.14  
Year to date precipitation 17.49  
Sea Level Pressure  
Sea Level Pressure 30.15 in    
Wind  
Wind Speed 2 mph (WNW)    
Max Wind Speed 12 mph    
Max Gust Speed 20 mph    
Visibility 5 miles    
Events      
T = Trace of Precipitation, MM = Missing Value Source: NWS Daily Summary

Daily Weather History Graph

Daily Weather History Graph

Search for Another Location

Airport:

Trip Planner

Search our weather history database for the weather conditions in past years. The results will help you decide how hot, cold, wet, or windy it might be!

Date:

Astronomy

May. 13, 2014 Rise Set
Actual Time 6:27 AM EDT 8:32 PM EDT
Civil Twilight 5:58 AM EDT 9:01 PM EDT
Nautical Twilight 5:23 AM EDT 9:36 PM EDT
Astronomical Twilight 4:45 AM EDT 10:14 PM EDT
Moon 7:34 PM EDT (5/13) 5:40 AM EDT (5/13)
Length of Visible Light 15h 02m
Length of Day
14h 05m
Waxing Gibbous, 98% of the Moon is Illuminated
May 13
Waxing Gibbous
May 14
Full
May 21
Last Quarter
May 28
New
Jun 5
First Quarter

Hourly Weather History & Observations

Time (EDT) Temp. Heat Index Dew Point Humidity Pressure Visibility Wind Dir Wind Speed Gust Speed Precip Events Conditions
12:15 AM 64.4 °F - 62.6 °F 94% 30.13 in 10.0 mi Calm Calm - N/A   Clear
12:35 AM 64.4 °F - 62.6 °F 94% 30.14 in 4.0 mi Calm Calm - N/A   Clear
12:55 AM 64.4 °F - 62.6 °F 94% 30.14 in 4.0 mi Calm Calm - N/A   Clear
1:15 AM 64.4 °F - 62.6 °F 94% 30.14 in 3.0 mi Calm Calm - N/A   Clear
1:35 AM 62.6 °F - 62.6 °F 100% 30.14 in 3.0 mi NE 3.5 mph - N/A   Clear
1:55 AM 62.6 °F - 62.6 °F 100% 30.14 in 4.0 mi North 5.8 mph - N/A   Clear
2:15 AM 62.6 °F - 60.8 °F 94% 30.14 in 3.0 mi Calm Calm - N/A   Scattered Clouds
2:35 AM 62.6 °F - 62.6 °F 100% 30.14 in 0.2 mi Calm Calm - N/A   Overcast
2:55 AM 62.6 °F - 60.8 °F 94% 30.14 in 3.0 mi Calm Calm - N/A   Scattered Clouds
3:15 AM 62.6 °F - 60.8 °F 94% 30.15 in 0.5 mi Calm Calm - N/A   Overcast
3:35 AM 62.6 °F - 60.8 °F 94% 30.15 in 0.2 mi Calm Calm - N/A   Overcast
3:55 AM 62.6 °F - 60.8 °F 94% 30.15 in 0.2 mi Calm Calm - N/A   Overcast
4:15 AM 62.6 °F - 60.8 °F 94% 30.15 in 0.5 mi Calm Calm - N/A   Overcast
4:35 AM 62.6 °F - 60.8 °F 94% 30.15 in 2.0 mi Calm Calm - N/A   Overcast
4:55 AM 62.6 °F - 60.8 °F 94% 30.15 in 0.5 mi Calm Calm - N/A   Overcast
5:15 AM 62.6 °F - 60.8 °F 94% 30.15 in 1.2 mi Calm Calm - N/A   Overcast
5:35 AM 62.6 °F - 60.8 °F 94% 30.15 in 0.8 mi Calm Calm - N/A   Overcast
5:55 AM 62.6 °F - 60.8 °F 94% 30.15 in 0.8 mi Calm Calm - N/A   Overcast
6:15 AM 62.6 °F - 60.8 °F 94% 30.15 in 2.0 mi Calm Calm - N/A   Mostly Cloudy
6:35 AM 60.8 °F - 60.8 °F 100% 30.16 in 1.0 mi Calm Calm - N/A   Overcast
6:55 AM 60.8 °F - 60.8 °F 100% 30.16 in 0.5 mi Calm Calm - N/A   Overcast
7:15 AM 62.6 °F - 60.8 °F 94% 30.16 in 0.2 mi Calm Calm - N/A   Overcast
7:35 AM 62.6 °F - 60.8 °F 94% 30.17 in 0.5 mi Calm Calm - N/A   Overcast
7:55 AM 62.6 °F - 62.6 °F 100% 30.17 in 1.0 mi Calm Calm - N/A   Overcast
9:15 AM 69.8 °F - 62.6 °F 78% 30.18 in 10.0 mi Calm Calm - N/A   Clear
9:35 AM 73.4 °F - 64.4 °F 73% 30.18 in 10.0 mi Calm Calm - N/A   Scattered Clouds
9:55 AM 75.2 °F - 64.4 °F 69% 30.18 in 10.0 mi East 3.5 mph - N/A   Scattered Clouds
10:15 AM 77.0 °F - 62.6 °F 61% 30.18 in 10.0 mi Calm Calm - N/A   Scattered Clouds
11:55 AM 80.6 °F 81.5 °F 60.8 °F 51% 30.18 in 10.0 mi West 5.8 mph - N/A   Mostly Cloudy
12:35 PM 78.8 °F - 60.8 °F 54% 30.18 in 10.0 mi West 8.1 mph - N/A   Mostly Cloudy
1:15 PM 82.4 °F 82.9 °F 60.8 °F 48% 30.16 in 10.0 mi Calm Calm - N/A   Scattered Clouds
1:35 PM 84.2 °F 85.0 °F 62.6 °F 48% 30.16 in 10.0 mi WNW 8.1 mph - N/A   Scattered Clouds
1:55 PM 82.4 °F 82.9 °F 60.8 °F 48% 30.15 in 10.0 mi West 4.6 mph - N/A   Mostly Cloudy
2:15 PM 86.0 °F 86.6 °F 62.6 °F 45% 30.14 in 10.0 mi West 8.1 mph 16.1 mph N/A   Mostly Cloudy
2:35 PM 84.2 °F 83.8 °F 59.0 °F 42% 30.13 in 10.0 mi SW 4.6 mph - N/A   Scattered Clouds
2:55 PM 84.2 °F 84.4 °F 60.8 °F 45% 30.13 in 5.0 mi WSW 4.6 mph - N/A   Scattered Clouds
3:15 PM 84.2 °F 84.4 °F 60.8 °F 45% 30.12 in 10.0 mi West 3.5 mph - N/A   Scattered Clouds
3:35 PM 86.0 °F 85.4 °F 59.0 °F 40% 30.11 in 10.0 mi SW 5.8 mph - N/A   Scattered Clouds
3:55 PM 84.2 °F 83.8 °F 59.0 °F 42% 30.10 in 10.0 mi SW 3.5 mph - N/A   Mostly Cloudy
4:15 PM 84.2 °F 83.8 °F 59.0 °F 42% 30.10 in 10.0 mi WNW 9.2 mph - N/A   Scattered Clouds
4:35 PM 86.0 °F 84.9 °F 57.2 °F 37% 30.09 in 10.0 mi West 6.9 mph - N/A   Clear
4:55 PM 86.0 °F 84.9 °F 57.2 °F 37% 30.10 in 10.0 mi West 5.8 mph - N/A   Scattered Clouds
5:15 PM 82.4 °F 81.7 °F 55.4 °F 39% 30.10 in 10.0 mi SW 5.8 mph - N/A   Clear
5:35 PM 77.0 °F - 60.8 °F 57% 30.13 in 10.0 mi South 11.5 mph 19.6 mph N/A   Mostly Cloudy
5:55 PM 69.8 °F - 64.4 °F 83% 30.13 in 10.0 mi North 8.1 mph - N/A   Mostly Cloudy
6:15 PM 69.8 °F - 62.6 °F 78% 30.14 in 10.0 mi Calm Calm - N/A   Mostly Cloudy
6:35 PM 68.0 °F - 64.4 °F 88% 30.13 in 7.0 mi SE 5.8 mph - N/A   Overcast
6:55 PM 68.0 °F - 64.4 °F 88% 30.14 in 5.0 mi Calm Calm - N/A   Scattered Clouds
7:15 PM 68.0 °F - 64.4 °F 88% 30.14 in 3.0 mi Calm Calm - N/A   Scattered Clouds
7:35 PM 68.0 °F - 64.4 °F 88% 30.14 in 1.0 mi Calm Calm - N/A   Mostly Cloudy
8:15 PM 66.2 °F - 64.4 °F 94% 30.14 in 5.0 mi Calm Calm - N/A   Clear
8:35 PM 66.2 °F - 64.4 °F 94% 30.14 in 3.0 mi ENE 3.5 mph - N/A   Clear
8:55 PM 66.2 °F - 64.4 °F 94% 30.14 in 7.0 mi Calm Calm - N/A   Clear
9:15 PM 64.4 °F - 64.4 °F 100% 30.15 in 3.0 mi Calm Calm - N/A   Scattered Clouds
9:35 PM 64.4 °F - 62.6 °F 94% 30.15 in 2.5 mi ENE 3.5 mph - N/A   Scattered Clouds
9:55 PM 64.4 °F - 62.6 °F 94% 30.16 in 1.5 mi East 4.6 mph - N/A   Mostly Cloudy
10:15 PM 64.4 °F - 62.6 °F 94% 30.16 in 4.0 mi NE 3.5 mph - N/A   Overcast
10:35 PM 64.4 °F - 62.6 °F 94% 30.16 in 2.0 mi Calm Calm - N/A   Overcast
10:55 PM 64.4 °F - 62.6 °F 94% 30.17 in 3.0 mi ENE 4.6 mph - N/A   Mostly Cloudy
11:15 PM 64.4 °F - 62.6 °F 94% 30.17 in 4.0 mi ENE 3.5 mph - N/A   Mostly Cloudy
11:35 PM 64.4 °F - 62.6 °F 94% 30.17 in 1.0 mi ENE 3.5 mph - N/A   Mostly Cloudy
11:55 PM 64.4 °F - 62.6 °F 94% 30.16 in 2.0 mi ENE 3.5 mph - N/A   Mostly Cloudy